Time,TemperatureF,DewpointF,PressureIn,WindDirection,WindDirectionDegrees,WindSpeedMPH,WindSpeedGustMPH,Humidity,HourlyPrecipIn,Conditions,Clouds,dailyrainin,SoftwareType,DateUTC
2013-09-04 00:07:00,55.5,55.0,30.00,WSW,250,5.0,-999.0,97,-99.99,,,0.00,weatherlink.com 1.10,2013-09-04 07:07:00,
2013-09-04 00:22:00,54.6,54.0,30.00,WSW,251,5.0,-999.0,97,-99.99,,,0.00,weatherlink.com 1.10,2013-09-04 07:22:00,
2013-09-04 00:38:00,54.9,54.0,30.00,WSW,251,3.0,-999.0,98,-99.99,,,0.00,weatherlink.com 1.10,2013-09-04 07:38:00,
2013-09-04 00:52:00,55.2,55.0,30.00,WSW,253,2.0,-999.0,98,-99.99,,,0.00,weatherlink.com 1.10,2013-09-04 07:52:00,
2013-09-04 01:07:00,55.3,55.0,30.00,WSW,251,2.0,-999.0,98,-99.99,,,0.00,weatherlink.com 1.10,2013-09-04 08:07:00,
2013-09-04 01:22:00,55.1,55.0,30.01,WSW,251,0.0,-999.0,98,-99.99,,,0.00,weatherlink.com 1.10,2013-09-04 08:22:00,
2013-09-04 01:38:00,54.8,54.0,30.01,WSW,251,0.0,-999.0,98,-99.99,,,0.00,weatherlink.com 1.10,2013-09-04 08:38:00,
2013-09-04 01:52:00,54.9,54.0,30.01,WSW,251,0.0,-999.0,98,-99.99,,,0.00,weatherlink.com 1.10,2013-09-04 08:52:00,
2013-09-04 02:07:00,54.9,54.0,30.01,WSW,251,0.0,-999.0,98,-99.99,,,0.00,weatherlink.com 1.10,2013-09-04 09:07:00,
2013-09-04 02:22:00,54.5,54.0,30.00,WSW,251,0.0,-999.0,98,-99.99,,,0.00,weatherlink.com 1.10,2013-09-04 09:22:00,
2013-09-04 02:39:00,54.4,54.0,30.00,WSW,251,0.0,-999.0,98,-99.99,,,0.00,weatherlink.com 1.10,2013-09-04 09:39:00,
2013-09-04 02:52:00,53.8,53.0,30.00,WSW,251,2.0,-999.0,97,-99.99,,,0.00,weatherlink.com 1.10,2013-09-04 09:52:00,
2013-09-04 03:07:00,53.8,53.0,30.00,WSW,251,3.0,-999.0,98,-99.99,,,0.00,weatherlink.com 1.10,2013-09-04 10:07:00,
2013-09-04 03:22:00,53.5,53.0,30.00,WSW,251,2.0,-999.0,98,-99.99,,,0.00,weatherlink.com 1.10,2013-09-04 10:22:00,
2013-09-04 03:38:00,53.5,53.0,30.00,WSW,252,0.0,-999.0,98,-99.99,,,0.00,weatherlink.com 1.10,2013-09-04 10:38:00,
2013-09-04 03:52:00,53.2,53.0,30.00,WSW,254,4.0,-999.0,98,-99.99,,,0.00,weatherlink.com 1.10,2013-09-04 10:52:00,
2013-09-04 04:07:00,53.0,53.0,29.99,WSW,257,3.0,-999.0,98,-99.99,,,0.00,weatherlink.com 1.10,2013-09-04 11:07:00,
2013-09-04 04:22:00,52.4,52.0,29.99,WSW,256,3.0,-999.0,98,-99.99,,,0.00,weatherlink.com 1.10,2013-09-04 11:22:00,
2013-09-04 04:38:00,52.3,52.0,29.99,WSW,256,1.0,-999.0,98,-99.99,,,0.00,weatherlink.com 1.10,2013-09-04 11:38:00,
2013-09-04 04:52:00,52.1,52.0,30.00,WSW,255,0.0,-999.0,98,-99.99,,,0.00,weatherlink.com 1.10,2013-09-04 11:52:00,
2013-09-04 05:07:00,52.8,52.0,29.99,WSW,256,4.0,-999.0,98,-99.99,,,0.00,weatherlink.com 1.10,2013-09-04 12:07:00,
2013-09-04 05:22:00,53.3,53.0,29.99,WSW,254,0.0,-999.0,98,-99.99,,,0.00,weatherlink.com 1.10,2013-09-04 12:22:00,
2013-09-04 05:38:00,53.7,54.0,29.99,WSW,254,4.0,-999.0,99,-99.99,,,0.01,weatherlink.com 1.10,2013-09-04 12:38:00,
2013-09-04 05:52:00,53.7,53.0,30.00,WSW,254,0.0,-999.0,98,-99.99,,,0.01,weatherlink.com 1.10,2013-09-04 12:52:00,
2013-09-04 06:07:00,53.0,53.0,30.00,WSW,254,0.0,-999.0,98,-99.99,,,0.01,weatherlink.com 1.10,2013-09-04 13:07:00,
2013-09-04 06:22:00,52.9,52.0,30.00,WSW,254,0.0,-999.0,98,-99.99,,,0.01,weatherlink.com 1.10,2013-09-04 13:22:00,
2013-09-04 06:38:00,53.4,53.0,30.01,WSW,254,0.0,-999.0,98,-99.99,,,0.01,weatherlink.com 1.10,2013-09-04 13:38:00,
2013-09-04 06:52:00,53.2,53.0,30.00,WSW,254,0.0,-999.0,98,-99.99,,,0.01,weatherlink.com 1.10,2013-09-04 13:52:00,
2013-09-04 07:07:00,54.0,54.0,30.01,WSW,254,0.0,-999.0,99,-99.99,,,0.01,weatherlink.com 1.10,2013-09-04 14:07:00,
2013-09-04 07:22:00,54.2,54.0,30.00,WSW,254,0.0,-999.0,98,-99.99,,,0.01,weatherlink.com 1.10,2013-09-04 14:22:00,
2013-09-04 07:38:00,53.6,53.0,30.01,WSW,254,0.0,-999.0,98,-99.99,,,0.01,weatherlink.com 1.10,2013-09-04 14:38:00,
2013-09-04 07:52:00,53.7,53.0,30.01,WSW,254,0.0,-999.0,98,-99.99,,,0.01,weatherlink.com 1.10,2013-09-04 14:52:00,
2013-09-04 08:07:00,53.1,53.0,30.02,WSW,254,0.0,-999.0,98,-99.99,,,0.01,weatherlink.com 1.10,2013-09-04 15:07:00,
2013-09-04 08:22:00,53.0,53.0,30.03,WSW,254,0.0,-999.0,99,-99.99,,,0.01,weatherlink.com 1.10,2013-09-04 15:22:00,
2013-09-04 08:38:00,53.1,53.0,30.02,WSW,254,0.0,-999.0,99,-99.99,,,0.01,weatherlink.com 1.10,2013-09-04 15:38:00,
2013-09-04 08:52:00,54.2,54.0,30.02,WSW,254,0.0,-999.0,99,-99.99,,,0.01,weatherlink.com 1.10,2013-09-04 15:52:00,
2013-09-04 09:07:00,54.0,54.0,30.02,WSW,254,0.0,-999.0,98,-99.99,,,0.01,weatherlink.com 1.10,2013-09-04 16:07:00,
2013-09-04 09:22:00,53.5,53.0,30.02,WSW,254,0.0,-999.0,98,-99.99,,,0.01,weatherlink.com 1.10,2013-09-04 16:22:00,
2013-09-04 09:38:00,53.9,54.0,30.02,WSW,254,0.0,-999.0,99,-99.99,,,0.01,weatherlink.com 1.10,2013-09-04 16:38:00,
2013-09-04 09:52:00,54.3,54.0,30.02,WSW,254,0.0,-999.0,98,-99.99,,,0.01,weatherlink.com 1.10,2013-09-04 16:52:00,
2013-09-04 10:07:00,55.8,56.0,30.02,SW,227,0.0,-999.0,99,-99.99,,,0.01,weatherlink.com 1.10,2013-09-04 17:07:00,
2013-09-04 10:22:00,55.9,56.0,30.02,SSW,207,0.0,-999.0,99,-99.99,,,0.01,weatherlink.com 1.10,2013-09-04 17:22:00,
2013-09-04 10:38:00,57.3,57.0,30.03,SSW,207,0.0,-999.0,99,-99.99,,,0.01,weatherlink.com 1.10,2013-09-04 17:38:00,
2013-09-04 10:53:00,58.1,58.0,30.03,SSW,207,0.0,-999.0,98,-99.99,,,0.01,weatherlink.com 1.10,2013-09-04 17:53:00,
2013-09-04 11:08:00,58.3,58.0,30.03,SSW,205,0.0,-999.0,97,-99.99,,,0.01,weatherlink.com 1.10,2013-09-04 18:08:00,
2013-09-04 11:23:00,58.0,57.0,30.03,SSW,205,0.0,-999.0,96,-99.99,,,0.01,weatherlink.com 1.10,2013-09-04 18:23:00,
2013-09-04 11:52:00,61.1,59.0,30.02,ESE,102,0.0,-999.0,94,-99.99,,,0.01,weatherlink.com 1.10,2013-09-04 18:52:00,
2013-09-04 12:07:00,62.0,59.0,30.02,NNE,23,0.0,-999.0,90,-99.99,,,0.01,weatherlink.com 1.10,2013-09-04 19:07:00,
2013-09-04 12:22:00,62.1,58.0,30.02,NE,36,2.0,-999.0,87,-99.99,,,0.01,weatherlink.com 1.10,2013-09-04 19:22:00,
2013-09-04 12:40:00,61.8,58.0,30.02,ENE,61,1.0,-999.0,88,-99.99,,,0.01,weatherlink.com 1.10,2013-09-04 19:40:00,
2013-09-04 12:53:00,62.7,59.0,30.02,NE,38,3.0,-999.0,87,-99.99,,,0.01,weatherlink.com 1.10,2013-09-04 19:53:00,
2013-09-04 13:08:00,63.1,59.0,30.02,NE,49,0.0,-999.0,87,-99.99,,,0.01,weatherlink.com 1.10,2013-09-04 20:08:00,
2013-09-04 13:23:00,63.5,59.0,30.02,NE,50,0.0,-999.0,85,-99.99,,,0.01,weatherlink.com 1.10,2013-09-04 20:23:00,
2013-09-04 13:39:00,63.5,59.0,30.02,NE,45,0.0,-999.0,84,-99.99,,,0.01,weatherlink.com 1.10,2013-09-04 20:39:00,
2013-09-04 13:53:00,62.4,58.0,30.02,NE,47,0.0,-999.0,86,-99.99,,,0.01,weatherlink.com 1.10,2013-09-04 20:53:00,
2013-09-04 14:08:00,62.6,58.0,30.02,NE,47,0.0,-999.0,86,-99.99,,,0.01,weatherlink.com 1.10,2013-09-04 21:08:00,
2013-09-04 14:23:00,63.8,59.0,30.01,NE,47,0.0,-999.0,84,-99.99,,,0.01,weatherlink.com 1.10,2013-09-04 21:23:00,
2013-09-04 14:39:00,63.4,59.0,30.02,NE,46,2.0,-999.0,84,-99.99,,,0.01,weatherlink.com 1.10,2013-09-04 21:39:00,
2013-09-04 14:53:00,61.7,58.0,30.02,NE,46,1.0,-999.0,86,-99.99,,,0.01,weatherlink.com 1.10,2013-09-04 21:53:00,
2013-09-04 15:08:00,61.2,58.0,30.02,East,99,0.0,-999.0,88,-99.99,,,0.01,weatherlink.com 1.10,2013-09-04 22:08:00,
2013-09-04 15:23:00,60.4,57.0,30.03,East,92,0.0,-999.0,89,-99.99,,,0.01,weatherlink.com 1.10,2013-09-04 22:23:00,
2013-09-04 15:39:00,60.6,58.0,30.02,East,92,0.0,-999.0,90,-99.99,,,0.01,weatherlink.com 1.10,2013-09-04 22:39:00,
2013-09-04 15:53:00,61.1,58.0,30.03,East,92,0.0,-999.0,88,-99.99,,,0.01,weatherlink.com 1.10,2013-09-04 22:53:00,
2013-09-04 16:08:00,62.0,59.0,30.02,East,92,0.0,-999.0,88,-99.99,,,0.01,weatherlink.com 1.10,2013-09-04 23:08:00,
2013-09-04 16:23:00,62.1,59.0,30.02,East,98,0.0,-999.0,88,-99.99,,,0.01,weatherlink.com 1.10,2013-09-04 23:23:00,
2013-09-04 16:39:00,62.3,59.0,30.01,SW,221,0.0,-999.0,90,-99.99,,,0.01,weatherlink.com 1.10,2013-09-04 23:39:00,
2013-09-04 16:53:00,60.5,58.0,30.03,South,173,0.0,-999.0,90,-99.99,,,0.01,weatherlink.com 1.10,2013-09-04 23:53:00,
2013-09-04 17:08:00,62.1,60.0,30.02,South,176,0.0,-999.0,93,-99.99,,,0.01,weatherlink.com 1.10,2013-09-05 00:08:00,
2013-09-04 17:23:00,63.2,60.0,30.02,WSW,238,3.0,-999.0,90,-99.99,,,0.01,weatherlink.com 1.10,2013-09-05 00:23:00,
2013-09-04 17:39:00,63.8,61.0,30.02,SW,223,0.0,-999.0,90,-99.99,,,0.01,weatherlink.com 1.10,2013-09-05 00:39:00,
2013-09-04 17:53:00,64.8,60.0,30.01,NE,37,2.0,-999.0,85,-99.99,,,0.01,weatherlink.com 1.10,2013-09-05 00:53:00,
2013-09-04 18:08:00,63.3,59.0,30.01,ESE,118,0.0,-999.0,86,-99.99,,,0.01,weatherlink.com 1.10,2013-09-05 01:08:00,
2013-09-04 18:23:00,63.5,59.0,30.01,ESE,118,0.0,-999.0,86,-99.99,,,0.01,weatherlink.com 1.10,2013-09-05 01:23:00,
2013-09-04 18:42:00,63.9,60.0,30.01,ESE,118,0.0,-999.0,86,-99.99,,,0.01,weatherlink.com 1.10,2013-09-05 01:42:00,
2013-09-04 18:53:00,62.9,59.0,30.01,ESE,118,0.0,-999.0,87,-99.99,,,0.01,weatherlink.com 1.10,2013-09-05 01:53:00,
2013-09-04 19:08:00,62.2,59.0,30.01,ESE,118,2.0,-999.0,88,-99.99,,,0.01,weatherlink.com 1.10,2013-09-05 02:08:00,
2013-09-04 19:23:00,60.6,58.0,30.01,ESE,118,0.0,-999.0,90,-99.99,,,0.01,weatherlink.com 1.10,2013-09-05 02:23:00,
2013-09-04 19:39:00,60.3,58.0,30.01,ESE,118,0.0,-999.0,91,-99.99,,,0.01,weatherlink.com 1.10,2013-09-05 02:39:00,
2013-09-04 19:53:00,60.7,59.0,30.00,ESE,118,0.0,-999.0,93,-99.99,,,0.01,weatherlink.com 1.10,2013-09-05 02:53:00,
2013-09-04 20:08:00,60.2,58.0,30.00,ESE,118,0.0,-999.0,92,-99.99,,,0.01,weatherlink.com 1.10,2013-09-05 03:08:00,
2013-09-04 20:23:00,59.0,57.0,30.01,ESE,118,0.0,-999.0,94,-99.99,,,0.01,weatherlink.com 1.10,2013-09-05 03:23:00,
2013-09-04 20:39:00,59.0,58.0,30.02,ESE,118,0.0,-999.0,95,-99.99,,,0.01,weatherlink.com 1.10,2013-09-05 03:39:00,
2013-09-04 20:53:00,59.0,58.0,30.03,SSW,200,0.0,-999.0,95,-99.99,,,0.01,weatherlink.com 1.10,2013-09-05 03:53:00,
2013-09-04 21:08:00,59.3,58.0,30.03,SW,218,0.0,-999.0,96,-99.99,,,0.01,weatherlink.com 1.10,2013-09-05 04:08:00,
2013-09-04 21:23:00,59.2,58.0,30.02,WSW,242,3.0,-999.0,96,-99.99,,,0.01,weatherlink.com 1.10,2013-09-05 04:23:00,
2013-09-04 21:39:00,59.1,58.0,30.02,WSW,242,3.0,-999.0,96,-99.99,,,0.01,weatherlink.com 1.10,2013-09-05 04:39:00,
2013-09-04 21:53:00,59.0,58.0,30.02,WSW,242,2.0,-999.0,96,-99.99,,,0.01,weatherlink.com 1.10,2013-09-05 04:53:00,
2013-09-04 22:08:00,58.6,58.0,30.02,WSW,242,3.0,-999.0,96,-99.99,,,0.01,weatherlink.com 1.10,2013-09-05 05:08:00,
2013-09-04 22:23:00,57.7,57.0,30.03,WSW,251,4.0,-999.0,96,-99.99,,,0.01,weatherlink.com 1.10,2013-09-05 05:23:00,
2013-09-04 22:39:00,58.0,57.0,30.03,West,259,0.0,-999.0,97,-99.99,,,0.01,weatherlink.com 1.10,2013-09-05 05:39:00,
2013-09-04 22:53:00,57.4,57.0,30.02,WSW,244,5.0,-999.0,97,-99.99,,,0.01,weatherlink.com 1.10,2013-09-05 05:53:00,
2013-09-04 23:08:00,56.8,56.0,30.02,WSW,245,5.0,-999.0,97,-99.99,,,0.01,weatherlink.com 1.10,2013-09-05 06:08:00,
2013-09-04 23:23:00,56.6,56.0,30.02,WSW,240,4.0,-999.0,97,-99.99,,,0.01,weatherlink.com 1.10,2013-09-05 06:23:00,
2013-09-04 23:39:00,56.6,56.0,30.02,WSW,241,3.0,-999.0,97,-99.99,,,0.01,weatherlink.com 1.10,2013-09-05 06:39:00,
2013-09-04 23:53:00,56.3,56.0,30.01,WSW,243,3.0,-999.0,97,-99.99,,,0.01,weatherlink.com 1.10,2013-09-05 06:53:00,